Regional Weather Roundup
Issued by NWS Albany, NY

Home | Current Version | Previous Version | Text Only | Print | Product List | Glossary On
Versions: 1 2 3 4 5 6 7 8 9 10 11 12 13 14 15 16 17 18 19 20 21 22 23 24 25 26 27 28 29 30 31 32 33 34 35 36 37 38 39 40 41 42 43 44 45 46 47 48 49 50
000
ASUS41 KALY 141410
RWRALY

NEW YORK STATE HOURLY WEATHER ROUNDUP
NATIONAL WEATHER SERVICE ALBANY NY
900 AM EST THU DEC 14 2017

NOTE: "FAIR" INDICATES FEW OR NO CLOUDS BELOW 12,000 FEET WITH NO
SIGNIFICANT WEATHER AND/OR NO OBSTRUCTIONS TO VISIBILITY.

NYZ032-033-038>043-046>054-057>066-NYZ062>081-082-084-141500-
EAST


CITY           SKY/WX    TMP DP  RH WIND       PRES   REMARKS
ALBANY         CLOUDY    19  13  77 NW5       29.68R WCI  12
GLENS FALLS    MOSUNNY   17  11  77 SW5       29.65R WCI  10
POUGHKEEPSIE   CLOUDY    21  16  81 N5        29.65R WCI  15
NEWBURGH       PTSUNNY   19  18  93 N6        29.64R WCI  11
MONTGOMERY     CLOUDY    20  15  81 N3        29.64R
WHITE PLAINS   PTSUNNY   24  20  84 N7        29.62R WCI  16
ISLIP          LGT SNOW  28  26  92 N9        29.62R VSB 1   WCI  19
NEW YORK CITY  CLOUDY    28  23  81 N13       29.64R WCI  17
CENTRAL PARK   PTSUNNY   26  22  84 VRB5      29.66R WCI  20
$$

NYZ005>009-017-018-044>046-055-056-141500-
CENTRAL


CITY           SKY/WX    TMP DP  RH WIND       PRES   REMARKS
FULTON         SNOW      10   5  80 N9        29.78R VSB 1/2 WCI  -3
SYRACUSE       LGT SNOW   9   6  88 NW7       29.77R FOG     WCI  -2
ROME           CLOUDY     8   4  83 CALM      29.75R
ELMIRA         LGT SNOW  20  15  81 CALM      29.72R
BINGHAMTON     CLOUDY    13  10  88 NW9       29.62R WCI   1
MONTICELLO     SUNNY     18  12  77 W7        29.60R WCI   9
$$

NYZ026>034-041>043-087-141500-
NORTH


CITY           SKY/WX    TMP DP  RH WIND       PRES   REMARKS
WATERTOWN      CLOUDY     0  -4  83 CALM      29.81R
FORT DRUM      NOT AVBL
OGDENSBURG     FAIR       2  -4  76 W10       29.77R WCI -13
MASSENA        SUNNY      0  -6  76 W12       29.77R WCI -17
SARANAC LAKE   SUNNY     -4  -8  83 VRB6      29.56R WCI -16
PLATTSBURGH    MOSUNNY    8  -7  50 VRB7      29.69R WCI  -3
$$

NYZ001>004-010>016-019>021-085-141500-
WEST


CITY           SKY/WX    TMP DP  RH WIND       PRES   REMARKS
NIAGARA FALLS  LGT SNOW  16   7  67 NW16      29.85R WCI   1
BUFFALO        FLURRIES  13   6  74 N10       29.84R WCI   0
DUNKIRK        CLOUDY    15   8  73 NW10      29.87R WCI   2
JAMESTOWN      LGT SNOW  14  10  85 NW9       29.77R FOG     WCI   2
WELLSVILLE     LGT SNOW  13   7  77 NW9       29.70R WCI   1
ROCHESTER      LGT SNOW  15  10  80 NW13      29.82R WCI   1
PENN YAN       LGT SNOW  16  10  77 NW9       29.75R VSB 3/4 WCI   4
$$

             KEY
       WCI = WIND CHILL INDEX
       VSB = VISIBILITY
       HX  = HEAT INDEX
$$



USA.gov is the U.S. government's official web portal to all federal, state and local government web resources and services.